LGV327 SEGU-SEQM

Flight info

Callsign LGV327
Flight time 0h 29m
Altitude 24000
Route REGAP2 PAMIS
Aircraft B737/M-SDE2E3FGHIRWXY/LB1

Departure

Time 2026-05-05 03:11
Airport José Joaquín de Olmedo International Airport (SEGU)

Arrival

Time 2026-05-05 03:40
Airport Mariscal Sucre International Airport (SEQM)
Time Latitude Longitude Altitude Speed Heading
2026-05-05 02:51 -2.15750 -79.88566 28 ft 0 kts 300°
2026-05-05 03:03 -2.15751 -79.88565 28 ft 2 kts 300°
2026-05-05 03:03 -2.15764 -79.88543 28 ft 4 kts 308°
2026-05-05 03:03 -2.15783 -79.88524 28 ft 4 kts 325°
2026-05-05 03:03 -2.15805 -79.88514 28 ft 4 kts 12°
2026-05-05 03:04 -2.15815 -79.88518 28 ft 1 kts 30°
2026-05-05 03:04 -2.15816 -79.88518 28 ft 0 kts 30°
2026-05-05 03:06 -2.15792 -79.88505 27 ft 8 kts 30°
2026-05-05 03:06 -2.15724 -79.88465 27 ft 14 kts 30°
2026-05-05 03:06 -2.15625 -79.88408 27 ft 18 kts 30°
2026-05-05 03:07 -2.15507 -79.88340 27 ft 21 kts 30°
2026-05-05 03:07 -2.15375 -79.88263 27 ft 23 kts 30°
2026-05-05 03:07 -2.15270 -79.88218 27 ft 9 kts 336°
2026-05-05 03:07 -2.15217 -79.88251 28 ft 10 kts 17°
2026-05-05 03:08 -2.15146 -79.88212 28 ft 13 kts 29°
2026-05-05 03:08 -2.15059 -79.88162 28 ft 16 kts 30°
2026-05-05 03:08 -2.14955 -79.88102 28 ft 18 kts 30°
2026-05-05 03:08 -2.14837 -79.88034 28 ft 21 kts 30°
2026-05-05 03:09 -2.14710 -79.87962 28 ft 14 kts 29°
2026-05-05 03:09 -2.14655 -79.87902 28 ft 10 kts 70°
2026-05-05 03:09 -2.14648 -79.87878 28 ft 0 kts 73°
2026-05-05 03:10 -2.14648 -79.87877 28 ft 1 kts 73°
2026-05-05 03:10 -2.14642 -79.87859 29 ft 6 kts 73°
2026-05-05 03:10 -2.14631 -79.87799 27 ft 12 kts 95°
2026-05-05 03:10 -2.14675 -79.87756 27 ft 10 kts 179°
2026-05-05 03:11 -2.14770 -79.87804 26 ft 32 kts 209°
2026-05-05 03:11 -2.15202 -79.88052 27 ft 110 kts 210°
2026-05-05 03:11 -2.16024 -79.88532 230 ft 151 kts 211°
2026-05-05 03:11 -2.16924 -79.89119 916 ft 160 kts 214°
2026-05-05 03:12 -2.17901 -79.89660 1711 ft 162 kts 201°
2026-05-05 03:12 -2.18967 -79.89800 2655 ft 155 kts 168°
2026-05-05 03:12 -2.19886 -79.89219 3282 ft 166 kts 120°
2026-05-05 03:12 -2.20119 -79.88067 3873 ft 182 kts 78°
2026-05-05 03:13 -2.19507 -79.86919 4534 ft 196 kts 46°
2026-05-05 03:13 -2.18533 -79.86000 5485 ft 193 kts 43°
2026-05-05 03:13 -2.17486 -79.85025 5914 ft 222 kts 44°
2026-05-05 03:13 -2.16273 -79.83875 6200 ft 258 kts 44°
2026-05-05 03:14 -2.14915 -79.82568 6726 ft 279 kts 44°
2026-05-05 03:14 -2.13508 -79.81195 7629 ft 285 kts 45°
2026-05-05 03:14 -2.12106 -79.79816 8625 ft 289 kts 45°
2026-05-05 03:14 -2.10668 -79.78392 9663 ft 293 kts 45°
2026-05-05 03:15 -2.09204 -79.76936 10478 ft 305 kts 46°
2026-05-05 03:15 -2.07635 -79.75372 10745 ft 334 kts 46°
2026-05-05 03:15 -2.05917 -79.73659 10967 ft 362 kts 46°
2026-05-05 03:15 -2.04025 -79.71927 11508 ft 375 kts 36°
2026-05-05 03:16 -2.01789 -79.70568 12347 ft 378 kts 30°
2026-05-05 03:16 -1.99479 -79.69288 13239 ft 380 kts 30°
2026-05-05 03:16 -1.97146 -79.68011 14035 ft 384 kts 30°
2026-05-05 03:16 -1.94794 -79.66715 14763 ft 388 kts 30°
2026-05-05 03:17 -1.92418 -79.65392 15494 ft 392 kts 31°
2026-05-05 03:17 -1.90027 -79.64049 16226 ft 397 kts 31°
2026-05-05 03:17 -1.87613 -79.62684 16911 ft 401 kts 31°
2026-05-05 03:17 -1.85175 -79.61303 17583 ft 405 kts 31°
2026-05-05 03:18 -1.82716 -79.59907 18233 ft 409 kts 31°
2026-05-05 03:18 -1.80235 -79.58497 18784 ft 412 kts 31°
2026-05-05 03:18 -1.77732 -79.57076 19348 ft 415 kts 31°
2026-05-05 03:18 -1.75216 -79.55648 19907 ft 417 kts 31°
2026-05-05 03:19 -1.70138 -79.52765 20972 ft 423 kts 31°
2026-05-05 03:19 -1.67572 -79.51308 21484 ft 425 kts 31°
2026-05-05 03:19 -1.64996 -79.49846 21995 ft 428 kts 31°
2026-05-05 03:20 -1.62401 -79.48374 22466 ft 431 kts 31°
2026-05-05 03:20 -1.59783 -79.46888 22917 ft 434 kts 31°
2026-05-05 03:20 -1.57166 -79.45392 23553 ft 430 kts 31°
2026-05-05 03:20 -1.54586 -79.43898 23929 ft 428 kts 31°
2026-05-05 03:21 -1.52009 -79.42398 24047 ft 432 kts 31°
2026-05-05 03:21 -1.49389 -79.40870 24065 ft 440 kts 31°
2026-05-05 03:21 -1.46724 -79.39317 24086 ft 447 kts 31°
2026-05-05 03:21 -1.44021 -79.37743 24092 ft 452 kts 31°
2026-05-05 03:22 -1.41288 -79.36154 24099 ft 457 kts 31°
2026-05-05 03:22 -1.38525 -79.34549 24107 ft 461 kts 31°
2026-05-05 03:22 -1.35743 -79.32933 24106 ft 463 kts 31°
2026-05-05 03:22 -1.32963 -79.31320 24109 ft 462 kts 31°
2026-05-05 03:23 -1.30185 -79.29708 24122 ft 461 kts 31°
2026-05-05 03:23 -1.27413 -79.28098 24140 ft 462 kts 31°
2026-05-05 03:23 -1.24630 -79.26483 24150 ft 461 kts 31°
2026-05-05 03:23 -1.21853 -79.24870 24161 ft 462 kts 31°
2026-05-05 03:24 -1.19075 -79.23257 24178 ft 462 kts 31°
2026-05-05 03:24 -1.16296 -79.21643 24187 ft 462 kts 31°
2026-05-05 03:24 -1.13521 -79.20032 24202 ft 462 kts 31°
2026-05-05 03:24 -1.10738 -79.18416 24206 ft 462 kts 31°
2026-05-05 03:25 -1.07959 -79.16803 24213 ft 462 kts 31°
2026-05-05 03:25 -1.05180 -79.15189 24233 ft 462 kts 31°
2026-05-05 03:25 -1.02400 -79.13575 24234 ft 462 kts 31°
2026-05-05 03:25 -0.99615 -79.11958 24243 ft 462 kts 31°
2026-05-05 03:26 -0.96841 -79.10347 24253 ft 462 kts 31°
2026-05-05 03:26 -0.94063 -79.08734 24273 ft 462 kts 31°
2026-05-05 03:26 -0.91283 -79.07120 24275 ft 462 kts 31°
2026-05-05 03:26 -0.88539 -79.05527 24289 ft 462 kts 31°
2026-05-05 03:27 -0.85725 -79.03893 24282 ft 462 kts 31°
2026-05-05 03:27 -0.82979 -79.02298 24281 ft 462 kts 31°
2026-05-05 03:27 -0.80210 -79.00684 24313 ft 462 kts 32°
2026-05-05 03:27 -0.77534 -78.98915 24303 ft 461 kts 36°
2026-05-05 03:28 -0.74942 -78.97012 24307 ft 461 kts 38°
2026-05-05 03:28 -0.72391 -78.95082 24330 ft 461 kts 38°
2026-05-05 03:28 -0.69828 -78.93154 24322 ft 461 kts 37°
2026-05-05 03:28 -0.67242 -78.91239 23431 ft 465 kts 37°
2026-05-05 03:29 -0.64640 -78.89342 22358 ft 460 kts 37°
2026-05-05 03:29 -0.62072 -78.87481 21332 ft 452 kts 37°
2026-05-05 03:29 -0.59548 -78.85652 20303 ft 445 kts 37°
2026-05-05 03:29 -0.57061 -78.83849 19454 ft 438 kts 37°
2026-05-05 03:30 -0.54667 -78.82104 19134 ft 416 kts 38°
2026-05-05 03:30 -0.52497 -78.80254 18380 ft 406 kts 45°
2026-05-05 03:30 -0.50642 -78.78142 17499 ft 402 kts 54°
2026-05-05 03:30 -0.49146 -78.75852 17178 ft 381 kts 61°
2026-05-05 03:31 -0.47993 -78.73589 16993 ft 352 kts 66°
2026-05-05 03:31 -0.47114 -78.71408 16835 ft 326 kts 72°
2026-05-05 03:31 -0.46495 -78.69314 16697 ft 304 kts 74°
2026-05-05 03:31 -0.45902 -78.67353 16493 ft 287 kts 73°
2026-05-05 03:32 -0.45317 -78.65460 15975 ft 284 kts 73°
2026-05-05 03:32 -0.44693 -78.63584 15397 ft 285 kts 71°
2026-05-05 03:32 -0.43989 -78.61743 14877 ft 283 kts 69°
2026-05-05 03:32 -0.43230 -78.59939 14379 ft 281 kts 67°
2026-05-05 03:33 -0.42422 -78.58182 14018 ft 276 kts 66°
2026-05-05 03:33 -0.41559 -78.56467 13724 ft 278 kts 64°
2026-05-05 03:33 -0.40574 -78.54793 13419 ft 282 kts 57°
2026-05-05 03:33 -0.39395 -78.53224 13155 ft 282 kts 51°
2026-05-05 03:34 -0.38073 -78.51788 12872 ft 280 kts 46°
2026-05-05 03:34 -0.36628 -78.50501 12598 ft 277 kts 40°
2026-05-05 03:34 -0.35083 -78.49372 12329 ft 274 kts 35°
2026-05-05 03:34 -0.33450 -78.48420 12062 ft 271 kts 28°
2026-05-05 03:35 -0.31734 -78.47674 11811 ft 267 kts 21°
2026-05-05 03:35 -0.29964 -78.47112 11382 ft 271 kts 16°
2026-05-05 03:35 -0.28118 -78.46705 11071 ft 271 kts 12°
2026-05-05 03:35 -0.26273 -78.46348 10782 ft 268 kts 13°
2026-05-05 03:36 -0.24562 -78.45727 10460 ft 258 kts 33°
2026-05-05 03:36 -0.23303 -78.44521 10157 ft 248 kts 57°
2026-05-05 03:36 -0.22644 -78.42997 9878 ft 238 kts 75°
2026-05-05 03:36 -0.22212 -78.41462 9668 ft 220 kts 71°
2026-05-05 03:37 -0.21748 -78.40067 9484 ft 203 kts 70°
2026-05-05 03:37 -0.21302 -78.38786 9311 ft 187 kts 70°
2026-05-05 03:37 -0.20890 -78.37625 9193 ft 170 kts 71°
2026-05-05 03:37 -0.20445 -78.36601 9027 ft 152 kts 59°
2026-05-05 03:38 -0.19750 -78.35856 8929 ft 145 kts 38°
2026-05-05 03:38 -0.18896 -78.35311 8799 ft 147 kts 22°
2026-05-05 03:38 -0.18563 -78.35212 8745 ft 148 kts 11°
2026-05-05 03:38 -0.18228 -78.35177 8682 ft 148 kts
2026-05-05 03:39 -0.17459 -78.35220 8546 ft 146 kts 357°
2026-05-05 03:39 -0.16461 -78.35269 8382 ft 146 kts 358°
2026-05-05 03:39 -0.15442 -78.35313 8198 ft 147 kts 358°
2026-05-05 03:39 -0.14398 -78.35358 7996 ft 150 kts 358°
2026-05-05 03:40 -0.13394 -78.35401 7888 ft 133 kts 358°
2026-05-05 03:40 -0.12590 -78.35437 7852 ft 99 kts 358°
2026-05-05 03:40 -0.12023 -78.35460 7827 ft 64 kts 357°
2026-05-05 03:40 -0.11788 -78.35490 7820 ft 27 kts 339°
2026-05-05 03:41 -0.11644 -78.35565 7815 ft 10 kts 327°
2026-05-05 03:41 -0.11640 -78.35568 7815 ft 0 kts 326°
2026-05-05 03:41 -0.11639 -78.35568 7815 ft 1 kts 326°
2026-05-05 03:41 -0.11631 -78.35574 7815 ft 2 kts 325°
2026-05-05 03:42 -0.11615 -78.35589 7814 ft 4 kts 307°
2026-05-05 03:42 -0.11613 -78.35616 7814 ft 4 kts 250°
2026-05-05 03:42 -0.11634 -78.35633 7814 ft 4 kts 207°
2026-05-05 03:42 -0.11660 -78.35638 7813 ft 4 kts 187°
2026-05-05 03:43 -0.11685 -78.35642 7817 ft 4 kts 186°
2026-05-05 03:43 -0.11711 -78.35642 7818 ft 4 kts 179°
2026-05-05 03:43 -0.11748 -78.35641 7819 ft 6 kts 178°
2026-05-05 03:43 -0.11795 -78.35639 7821 ft 8 kts 177°
2026-05-05 03:44 -0.11854 -78.35636 7823 ft 9 kts 178°
2026-05-05 03:44 -0.11918 -78.35634 7826 ft 9 kts 178°
2026-05-05 03:44 -0.11984 -78.35631 7829 ft 9 kts 178°
2026-05-05 03:44 -0.12046 -78.35628 7833 ft 9 kts 177°
2026-05-05 03:45 -0.12108 -78.35625 7837 ft 9 kts 177°
2026-05-05 03:45 -0.12169 -78.35623 7839 ft 9 kts 178°
2026-05-05 03:45 -0.12245 -78.35620 7840 ft 12 kts 178°
2026-05-05 03:45 -0.12342 -78.35617 7840 ft 15 kts 178°
2026-05-05 03:46 -0.12459 -78.35612 7839 ft 18 kts 177°
2026-05-05 03:46 -0.12594 -78.35605 7839 ft 20 kts 177°
2026-05-05 03:46 -0.12741 -78.35600 7844 ft 23 kts 178°
2026-05-05 03:46 -0.12904 -78.35593 7847 ft 24 kts 177°
2026-05-05 03:47 -0.13065 -78.35586 7853 ft 23 kts 177°
2026-05-05 03:47 -0.13221 -78.35577 7864 ft 22 kts 177°
2026-05-05 03:47 -0.13372 -78.35573 7869 ft 21 kts 179°
2026-05-05 03:47 -0.13519 -78.35567 7878 ft 19 kts 176°
2026-05-05 03:48 -0.13579 -78.35623 7876 ft 7 kts 240°
2026-05-05 03:48 -0.13621 -78.35630 7879 ft 6 kts 178°
2026-05-05 03:48 -0.13650 -78.35659 7877 ft 10 kts 264°
2026-05-05 03:48 -0.13652 -78.35731 7870 ft 0 kts 267°